WXM80 ListenWXM80 Stop

You find our weather info also at:

UK Metoffice

WeatherCloud

Weather Underground

Northeastern Weather Network

AWEKAS

Citizen Weather Observer Program (CWOP)

HAMweather, WeatherForYou, PWS Weather


Weather Underground History page Text

Daily Summary for March 17, 2017 Units:  Metric    English   Both
« Previous Day
Next Day »
Daily Weekly Monthly Yearly Custom
  High: Low: Average:
Temperature: 7.6 °C -0.7 °C 2.9 °C
Dew Point: -5 °C -8.2 °C -6.4 °C
Humidity: 67 % 34 % 52 %
Wind Speed: 16.1 km/h 0 km/h 7.1 km/h
Wind Gust: 29.6 km/h - -
Wind:- - West
Pressure: 1023.6 hPa 1018.5 hPa -
Precipitation: 0 mm    
Historical Graphs
 
 
Tabular Data for March 17, 2017
Time Temperature Dew Point Pressure Wind Wind Speed Wind Gust Humidity Rainfall Rate (Hourly)
00:07 0.4 °C -7.8 °C 1018.5 hPa North 4.7 km/h 11.1 km/h 54 % 0 mm
00:13 0.3 °C -8.2 °C 1018.5 hPa NW 9.2 km/h 16.7 km/h 53 % 0 mm
00:18 0.3 °C -8.2 °C 1018.5 hPa WNW 8 km/h 16.1 km/h 53 % 0 mm
00:23 0.3 °C -7.9 °C 1018.5 hPa WNW 8 km/h 14.5 km/h 54 % 0 mm
00:28 0.3 °C -7.9 °C 1018.5 hPa WNW 9.7 km/h 14.5 km/h 54 % 0 mm
00:33 0.3 °C -7.9 °C 1018.5 hPa WNW 9.7 km/h 16.1 km/h 54 % 0 mm
00:38 0.3 °C -7.9 °C 1018.5 hPa NW 4.7 km/h 16.7 km/h 54 % 0 mm
00:43 0.3 °C -7.9 °C 1018.5 hPa WNW 9.7 km/h 14.5 km/h 54 % 0 mm
00:48 0.3 °C -7.7 °C 1018.5 hPa North 5.1 km/h 9.7 km/h 55 % 0 mm
00:53 0.2 °C -7.8 °C 1018.5 hPa WNW 9.7 km/h 20.9 km/h 55 % 0 mm
00:58 0.2 °C -7.8 °C 1018.5 hPa West 3.7 km/h 8 km/h 55 % 0 mm
01:03 0.2 °C -7.8 °C 1018.5 hPa NW 7.2 km/h 18.5 km/h 55 % 0 mm
01:08 0.2 °C -7.8 °C 1018.8 hPa NW 4.5 km/h 9.3 km/h 55 % 0 mm
01:13 0.2 °C -7.6 °C 1018.8 hPa WSW 4 km/h 5.6 km/h 56 % 0 mm
01:18 0.1 °C -7.7 °C 1018.8 hPa WNW 4.7 km/h 11.1 km/h 56 % 0 mm
01:23 0.1 °C -7.4 °C 1019.2 hPa WSW 3.4 km/h 9.7 km/h 57 % 0 mm
01:28 0.1 °C -7.4 °C 1019.2 hPa WSW 8.5 km/h 13 km/h 57 % 0 mm
01:33 0.2 °C -7.3 °C 1019.2 hPa WNW 8 km/h 13 km/h 57 % 0 mm
01:38 0.1 °C -7.2 °C 1018.8 hPa WNW 7.4 km/h 13 km/h 58 % 0 mm
01:43 0.1 °C -7.4 °C 1019.2 hPa WSW 5.5 km/h 9.3 km/h 57 % 0 mm
01:48 0.1 °C -7.2 °C 1019.2 hPa WNW 2.9 km/h 13 km/h 58 % 0 mm
01:53 0.1 °C -6.9 °C 1019.2 hPa WSW 6.9 km/h 14.8 km/h 59 % 0 mm
01:58 0.1 °C -6.9 °C 1019.2 hPa West 7.6 km/h 11.1 km/h 59 % 0 mm
02:04 0.1 °C -7 °C 1019.2 hPa WNW 3.9 km/h 11.1 km/h 59 % 0 mm
02:08 0.1 °C -7 °C 1019.2 hPa WNW 6.3 km/h 13 km/h 59 % 0 mm
02:14 0.1 °C -7 °C 1019.5 hPa WSW 2.9 km/h 22.5 km/h 59 % 0 mm
02:19 0.1 °C -6.9 °C 1019.2 hPa WSW 10.1 km/h 11.3 km/h 59 % 0 mm
02:24 0.1 °C -6.7 °C 1019.2 hPa West 4.8 km/h 13 km/h 60 % 0 mm
02:29 0.1 °C -6.6 °C 1019.2 hPa NW 7.4 km/h 22.2 km/h 61 % 0 mm
02:34 0.1 °C -6.6 °C 1019.5 hPa West 6.9 km/h 18.5 km/h 61 % 0 mm
02:39 0.1 °C -6.6 °C 1019.2 hPa NW 10.9 km/h 20.4 km/h 61 % 0 mm
02:44 0.1 °C -6.6 °C 1019.5 hPa West 1.8 km/h 11.1 km/h 61 % 0 mm
02:49 0.1 °C -6.6 °C 1019.5 hPa WSW 3.7 km/h 14.8 km/h 61 % 0 mm
02:54 0.1 °C -6.6 °C 1019.2 hPa WSW 6.1 km/h 13 km/h 61 % 0 mm
02:59 0.1 °C -6.6 °C 1019.2 hPa West 8.2 km/h 22.2 km/h 61 % 0 mm
03:04 0.1 °C -6.6 °C 1019.5 hPa West 6.4 km/h 13 km/h 61 % 0 mm
03:09 0.1 °C -6.6 °C 1019.5 hPa NW 9.8 km/h 14.5 km/h 61 % 0 mm
03:14 0.1 °C -6.8 °C 1019.2 hPa WNW 4.8 km/h 14.8 km/h 60 % 0 mm
03:19 0.1 °C -6.6 °C 1019.5 hPa WNW 10.8 km/h 16.7 km/h 61 % 0 mm
03:24 0 °C -6.6 °C 1019.5 hPa SW 6.4 km/h 12.9 km/h 61 % 0 mm
03:29 0 °C -6.6 °C 1019.5 hPa NW 5.5 km/h 13 km/h 61 % 0 mm
03:34 0 °C -6.8 °C 1019.5 hPa WNW 7.2 km/h 9.7 km/h 60 % 0 mm
03:39 0 °C -6.8 °C 1019.5 hPa West 12.7 km/h 24.1 km/h 60 % 0 mm
03:45 0 °C -6.6 °C 1019.5 hPa West 11.7 km/h 20.4 km/h 61 % 0 mm
03:50 0 °C -6.6 °C 1019.5 hPa WNW 6.9 km/h 20.4 km/h 61 % 0 mm
03:55 0 °C -6.4 °C 1019.5 hPa West 8.7 km/h 17.7 km/h 62 % 0 mm
04:00 0 °C -6.4 °C 1019.5 hPa SW 4.3 km/h 20.4 km/h 62 % 0 mm
04:05 -0.1 °C -6.3 °C 1019.5 hPa SW 11.3 km/h 18.5 km/h 63 % 0 mm
04:10 -0.1 °C -6.3 °C 1019.9 hPa SW 9 km/h 20.9 km/h 63 % 0 mm
04:15 -0.1 °C -6.3 °C 1019.9 hPa WSW 8.7 km/h 19.3 km/h 63 % 0 mm
04:20 -0.1 °C -6.3 °C 1019.9 hPa West 5.3 km/h 13 km/h 63 % 0 mm
04:25 -0.1 °C -6.3 °C 1019.9 hPa West 5.5 km/h 13 km/h 63 % 0 mm
04:26 -0.1 °C -6.1 °C 1019.9 hPa West 6.9 km/h 11.1 km/h 64 % 0 mm
04:31 -0.1 °C -6.1 °C 1020.2 hPa SSW 7.2 km/h 11.3 km/h 64 % 0 mm
04:36 -0.2 °C -5.9 °C 1020.2 hPa West 10.9 km/h 13 km/h 65 % 0 mm
04:42 -0.2 °C -6.2 °C 1020.2 hPa WSW 11.7 km/h 18.5 km/h 64 % 0 mm
04:47 -0.2 °C -5.9 °C 1020.2 hPa WSW 7.4 km/h 17.7 km/h 65 % 0 mm
04:52 -0.2 °C -6.2 °C 1020.5 hPa SW 8.4 km/h 16.7 km/h 64 % 0 mm
04:57 -0.2 °C -6 °C 1020.5 hPa SW 12.1 km/h 16.7 km/h 65 % 0 mm
05:02 -0.2 °C -6 °C 1020.5 hPa NW 13.8 km/h 20.9 km/h 65 % 0 mm
05:07 -0.2 °C -6.2 °C 1020.5 hPa WSW 8.4 km/h 14.8 km/h 64 % 0 mm
05:12 -0.2 °C -6.2 °C 1020.5 hPa WSW 4.3 km/h 9.3 km/h 64 % 0 mm
05:17 -0.3 °C -6.1 °C 1020.9 hPa West 9.3 km/h 18.5 km/h 65 % 0 mm
05:22 -0.3 °C -6.1 °C 1020.9 hPa SW 5.3 km/h 11.1 km/h 65 % 0 mm
05:27 -0.3 °C -6.1 °C 1020.9 hPa WSW 5.5 km/h 9.7 km/h 65 % 0 mm
05:32 -0.3 °C -6.1 °C 1020.9 hPa NW 8.9 km/h 16.7 km/h 65 % 0 mm
05:38 -0.4 °C -6.2 °C 1020.9 hPa West 8.5 km/h 13 km/h 65 % 0 mm
05:43 -0.4 °C -6.2 °C 1020.9 hPa West 8.4 km/h 18.5 km/h 65 % 0 mm
05:48 -0.4 °C -6.2 °C 1020.9 hPa WSW 4.8 km/h 19.3 km/h 65 % 0 mm
05:53 -0.4 °C -6 °C 1020.9 hPa West 11.3 km/h 19.3 km/h 66 % 0 mm
05:58 -0.4 °C -6 °C 1020.9 hPa West 8.7 km/h 14.8 km/h 66 % 0 mm
06:03 -0.4 °C -5.8 °C 1021.2 hPa West 9.7 km/h 19.3 km/h 67 % 0 mm
06:08 -0.5 °C -6.1 °C 1021.2 hPa West 8 km/h 12.9 km/h 66 % 0 mm
06:13 -0.5 °C -5.9 °C 1021.2 hPa West 4.8 km/h 19.3 km/h 67 % 0 mm
06:18 -0.5 °C -6.1 °C 1021.2 hPa WNW 8 km/h 19.3 km/h 66 % 0 mm
06:23 -0.6 °C -6.1 °C 1021.2 hPa West 11.3 km/h 20.9 km/h 66 % 0 mm
06:28 -0.6 °C -6.1 °C 1021.2 hPa WNW 8 km/h 17.7 km/h 66 % 0 mm
06:33 -0.6 °C -6.1 °C 1021.6 hPa West 8 km/h 19.3 km/h 66 % 0 mm
06:38 -0.6 °C -6.2 °C 1021.6 hPa WSW 13.8 km/h 14.8 km/h 66 % 0 mm
06:43 -0.6 °C -6.2 °C 1021.6 hPa West 8 km/h 14.5 km/h 66 % 0 mm
06:48 -0.6 °C -6 °C 1021.6 hPa WSW 10.8 km/h 14.8 km/h 67 % 0 mm
06:53 -0.7 °C -6.1 °C 1021.6 hPa West 8 km/h 22.5 km/h 67 % 0 mm
06:58 -0.7 °C -6.2 °C 1021.6 hPa WSW 8.4 km/h 19.3 km/h 66 % 0 mm
07:03 -0.7 °C -6.2 °C 1021.9 hPa West 6.6 km/h 13 km/h 66 % 0 mm
07:04 -0.7 °C -6.2 °C 1021.9 hPa WNW 8.4 km/h 13 km/h 66 % 0 mm
07:09 -0.7 °C -6.2 °C 1021.9 hPa WSW 5.6 km/h 11.1 km/h 66 % 0 mm
07:14 -0.7 °C -6.3 °C 1021.9 hPa WNW 6.3 km/h 13 km/h 66 % 0 mm
07:19 -0.7 °C -6.3 °C 1021.9 hPa WNW 6.9 km/h 16.7 km/h 66 % 0 mm
07:24 -0.7 °C -6.2 °C 1021.9 hPa WNW 14 km/h 19.3 km/h 66 % 0 mm
07:29 -0.6 °C -6.2 °C 1021.9 hPa WSW 6.8 km/h 13 km/h 66 % 0 mm
07:34 -0.6 °C -6.1 °C 1021.9 hPa WNW 6.9 km/h 18.5 km/h 66 % 0 mm
07:39 -0.5 °C -6.3 °C 1022.2 hPa West 6.3 km/h 11.1 km/h 65 % 0 mm
07:44 -0.4 °C -6.2 °C 1022.2 hPa WNW 12.1 km/h 18.5 km/h 65 % 0 mm
07:49 -0.3 °C -6.1 °C 1022.6 hPa NW 11.7 km/h 17.7 km/h 65 % 0 mm
07:50 -0.3 °C -6.1 °C 1022.6 hPa WSW 11.9 km/h 19.3 km/h 65 % 0 mm
07:55 -0.2 °C -5.9 °C 1022.6 hPa WSW 9.2 km/h 13 km/h 65 % 0 mm
08:00 -0.1 °C -6.1 °C 1022.6 hPa WSW 8.7 km/h 13 km/h 64 % 0 mm
08:05 0 °C -6 °C 1022.2 hPa WSW 11.9 km/h 18.5 km/h 64 % 0 mm
08:10 0.1 °C -5.9 °C 1022.6 hPa WSW 9.8 km/h 18.5 km/h 64 % 0 mm
08:15 0.3 °C -5.9 °C 1022.6 hPa West 5.1 km/h 20.4 km/h 63 % 0 mm
08:20 0.4 °C -5.8 °C 1022.6 hPa SW 6.4 km/h 9.3 km/h 63 % 0 mm
08:25 0.6 °C -5.9 °C 1022.6 hPa West 13.5 km/h 22.2 km/h 62 % 0 mm
08:30 0.7 °C -5.7 °C 1022.9 hPa West 8 km/h 14.8 km/h 62 % 0 mm
08:35 0.8 °C -5.7 °C 1022.9 hPa West 12.1 km/h 20.4 km/h 62 % 0 mm
08:40 0.9 °C -5.5 °C 1023.2 hPa WNW 11.7 km/h 14.5 km/h 62 % 0 mm
08:45 1.1 °C -5.6 °C 1023.2 hPa WSW 11.7 km/h 16.7 km/h 61 % 0 mm
08:50 1.2 °C -5.7 °C 1023.2 hPa WNW 9.2 km/h 16.7 km/h 60 % 0 mm
08:56 1.2 °C -5.9 °C 1023.2 hPa West 13.5 km/h 14.8 km/h 59 % 0 mm
09:01 1.3 °C -5.7 °C 1023.2 hPa WSW 11.6 km/h 18.5 km/h 60 % 0 mm
09:06 1.3 °C -5.9 °C 1023.2 hPa WSW 11.4 km/h 20.4 km/h 59 % 0 mm
09:11 1.3 °C -5.7 °C 1023.2 hPa WSW 10.3 km/h 13 km/h 60 % 0 mm
09:16 1.4 °C -5.6 °C 1023.2 hPa WSW 7.2 km/h 14.8 km/h 60 % 0 mm
09:21 1.5 °C -5.4 °C 1023.2 hPa West 7.7 km/h 25.9 km/h 60 % 0 mm
09:26 1.6 °C -5.2 °C 1023.2 hPa West 7.6 km/h 12.9 km/h 61 % 0 mm
09:31 1.7 °C -5.3 °C 1023.2 hPa WSW 8 km/h 16.7 km/h 60 % 0 mm
09:36 1.7 °C -5.4 °C 1023.2 hPa SW 12.7 km/h 25.7 km/h 59 % 0 mm
09:41 1.8 °C -5.3 °C 1023.6 hPa SW 15 km/h 25.7 km/h 59 % 0 mm
09:46 1.9 °C -5 °C 1023.2 hPa West 10.9 km/h 16.1 km/h 60 % 0 mm
09:51 2.1 °C -5.6 °C 1023.6 hPa SW 13.7 km/h 22.2 km/h 57 % 0 mm
09:56 2.1 °C -5.6 °C 1023.6 hPa West 15.3 km/h 22.2 km/h 57 % 0 mm
10:01 2.1 °C -5.3 °C 1023.6 hPa West 7.6 km/h 14.5 km/h 58 % 0 mm
10:06 2.2 °C -5.2 °C 1023.2 hPa NNW 11.1 km/h 18.5 km/h 58 % 0 mm
10:11 2.2 °C -5.4 °C 1023.6 hPa West 10.5 km/h 19.3 km/h 57 % 0 mm
10:17 2.3 °C -5.4 °C 1023.6 hPa WNW 7.7 km/h 18.5 km/h 57 % 0 mm
10:22 2.3 °C -5.8 °C 1023.2 hPa WSW 9 km/h 18.5 km/h 55 % 0 mm
10:27 2.5 °C -5.4 °C 1023.2 hPa SW 11.4 km/h 18.5 km/h 56 % 0 mm
10:32 2.7 °C -5.4 °C 1023.2 hPa WNW 10.9 km/h 18.5 km/h 55 % 0 mm
10:37 2.9 °C -5.2 °C 1023.2 hPa WNW 11.6 km/h 22.2 km/h 55 % 0 mm
10:42 3.1 °C -5.4 °C 1023.2 hPa West 12.2 km/h 22.2 km/h 54 % 0 mm
10:47 3.1 °C -5.3 °C 1023.2 hPa WSW 11.4 km/h 22.2 km/h 54 % 0 mm
10:58 3.2 °C -5.3 °C 1022.9 hPa WNW 8.4 km/h 18.5 km/h 54 % 0 mm
11:03 3.2 °C -5.4 °C 1022.9 hPa WSW 11.6 km/h 29.6 km/h 53 % 0 mm
11:08 3.3 °C -5.3 °C 1022.9 hPa West 9.7 km/h 20.9 km/h 53 % 0 mm
11:13 3.5 °C -5.2 °C 1022.9 hPa West 12.9 km/h 19.3 km/h 53 % 0 mm
11:18 3.7 °C -5.2 °C 1022.9 hPa West 12.9 km/h 24.1 km/h 52 % 0 mm
11:23 3.9 °C -5.1 °C 1022.9 hPa West 14.5 km/h 24.1 km/h 52 % 0 mm
11:28 4.2 °C -5.1 °C 1022.9 hPa West 8 km/h 27.4 km/h 51 % 0 mm
11:33 4.4 °C -5.1 °C 1022.9 hPa WNW 12.9 km/h 27.4 km/h 50 % 0 mm
11:38 4.6 °C -5.3 °C 1022.9 hPa WNW 4.8 km/h 22.5 km/h 49 % 0 mm
11:43 4.8 °C -5.6 °C 1022.6 hPa West 11.3 km/h 29 km/h 47 % 0 mm
11:48 4.7 °C -5.4 °C 1022.6 hPa West 14.3 km/h 20.9 km/h 48 % 0 mm
11:53 4.8 °C -5.6 °C 1022.6 hPa SW 16.1 km/h 20.4 km/h 47 % 0 mm
11:58 5 °C -5.4 °C 1022.6 hPa West 9 km/h 16.7 km/h 47 % 0 mm
12:03 5.1 °C -5.6 °C 1022.6 hPa WNW 11.6 km/h 22.2 km/h 46 % 0 mm
12:08 5.2 °C -5.5 °C 1022.6 hPa WNW 14.5 km/h 22.2 km/h 46 % 0 mm
12:13 5.3 °C -5.7 °C 1022.6 hPa WNW 9 km/h 20.4 km/h 45 % 0 mm
12:18 5.4 °C -5.9 °C 1022.6 hPa West 8.7 km/h 18.5 km/h 44 % 0 mm
12:23 5.6 °C -5.4 °C 1022.6 hPa NW 8.5 km/h 18.5 km/h 45 % 0 mm
12:28 5.6 °C -5.7 °C 1022.6 hPa WSW 13.7 km/h 22.2 km/h 44 % 0 mm
12:33 5.7 °C -5.7 °C 1022.6 hPa WNW 7.1 km/h 11.1 km/h 44 % 0 mm
12:38 5.7 °C -5.6 °C 1022.6 hPa WNW 6.9 km/h 14.8 km/h 44 % 0 mm
12:43 5.8 °C -5.8 °C 1022.2 hPa West 3.2 km/h 11.1 km/h 43 % 0 mm
12:48 5.9 °C -5.1 °C 1022.2 hPa WNW 9 km/h 13 km/h 45 % 0 mm
12:53 5.9 °C -6 °C 1022.2 hPa NW 15.3 km/h 20.4 km/h 42 % 0 mm
12:58 5.8 °C -5.8 °C 1022.2 hPa West 7.7 km/h 11.3 km/h 43 % 0 mm
13:03 5.9 °C -6.1 °C 1021.9 hPa NE 10.5 km/h 18.5 km/h 42 % 0 mm
13:08 6 °C -5.3 °C 1021.9 hPa WNW 5.8 km/h 11.1 km/h 44 % 0 mm
13:13 6.2 °C -6.1 °C 1021.9 hPa WNW 10.6 km/h 16.7 km/h 41 % 0 mm
13:18 6.2 °C -6.1 °C 1021.9 hPa NW 12.9 km/h 24.1 km/h 41 % 0 mm
13:23 6.2 °C -6.1 °C 1021.9 hPa West 8 km/h 13 km/h 41 % 0 mm
13:28 6.3 °C -5.7 °C 1021.9 hPa WSW 10.8 km/h 10.8 km/h 42 % 0 mm
13:33 6.3 °C -6.1 °C 1021.9 hPa WSW 7.9 km/h 16.7 km/h 41 % 0 mm
13:39 6.3 °C -6.1 °C 1021.9 hPa WNW 15.6 km/h 18.5 km/h 41 % 0 mm
13:44 6.2 °C -6.4 °C 1021.9 hPa West 10.1 km/h 16.7 km/h 40 % 0 mm
13:49 6.3 °C -5.7 °C 1021.9 hPa WNW 4.5 km/h 18.5 km/h 42 % 0 mm
13:54 6.5 °C -5.2 °C 1021.6 hPa NW 4.7 km/h 11.3 km/h 43 % 0 mm
13:59 6.7 °C -6.3 °C 1021.6 hPa West 12.7 km/h 24.1 km/h 39 % 0 mm
14:04 6.6 °C -6.1 °C 1021.6 hPa WNW 4.7 km/h 14.8 km/h 40 % 0 mm
14:09 6.7 °C -5.9 °C 1021.6 hPa NW 10.3 km/h 18.5 km/h 40 % 0 mm
14:14 6.8 °C -6.2 °C 1021.2 hPa WSW 7.2 km/h 14.8 km/h 39 % 0 mm
14:19 6.8 °C -5.8 °C 1021.2 hPa WNW 8.7 km/h 13 km/h 40 % 0 mm
14:24 6.9 °C -6.4 °C 1021.2 hPa West 6.6 km/h 18.5 km/h 38 % 0 mm
14:29 7 °C -6.4 °C 1021.2 hPa WNW 10.9 km/h 20.9 km/h 38 % 0 mm
14:34 7 °C -6.1 °C 1021.2 hPa WNW 9.2 km/h 18.5 km/h 39 % 0 mm
14:39 7.1 °C -5.6 °C 1020.9 hPa WNW 4.3 km/h 9.7 km/h 40 % 0 mm
14:44 7.3 °C -6.1 °C 1020.9 hPa WNW 8.5 km/h 14.5 km/h 38 % 0 mm
14:49 7.2 °C -6.5 °C 1020.9 hPa WSW 12.6 km/h 18.5 km/h 37 % 0 mm
14:54 7.2 °C -6.2 °C 1020.5 hPa WNW 9.5 km/h 19.3 km/h 38 % 0 mm
14:59 7.2 °C -6.9 °C 1020.9 hPa WNW 12.4 km/h 24.1 km/h 36 % 0 mm
15:04 7.2 °C -6.5 °C 1020.5 hPa WNW 12.2 km/h 16.7 km/h 37 % 0 mm
15:09 7.3 °C -6.8 °C 1020.5 hPa NW 12.4 km/h 14.8 km/h 36 % 0 mm
15:14 7.3 °C -6.8 °C 1020.5 hPa West 6.8 km/h 13 km/h 36 % 0 mm
15:19 7.4 °C -6.7 °C 1020.2 hPa WNW 8.2 km/h 14.8 km/h 36 % 0 mm
15:25 7.4 °C -6.7 °C 1020.2 hPa SW 8.4 km/h 18.5 km/h 36 % 0 mm
15:30 7.5 °C -6.6 °C 1020.2 hPa WSW 12.4 km/h 12.4 km/h 36 % 0 mm
15:35 7.5 °C -6.6 °C 1020.2 hPa WSW 10.6 km/h 14.5 km/h 36 % 0 mm
15:40 7.6 °C -6.9 °C 1020.2 hPa WSW 7.9 km/h 16.7 km/h 35 % 0 mm
15:45 7.5 °C -7 °C 1020.2 hPa West 10 km/h 14.8 km/h 35 % 0 mm
15:50 7.5 °C -6.6 °C 1020.2 hPa NW 6.9 km/h 14.8 km/h 36 % 0 mm
15:55 7.5 °C -7 °C 1020.2 hPa West 5.1 km/h 11.1 km/h 35 % 0 mm
16:00 7.5 °C -7 °C 1020.2 hPa WSW 8.5 km/h 13 km/h 35 % 0 mm
16:05 7.5 °C -7 °C 1020.2 hPa WNW 7.6 km/h 22.2 km/h 35 % 0 mm
16:10 7.6 °C -6.9 °C 1020.2 hPa West 8.7 km/h 17.7 km/h 35 % 0 mm
16:15 7.6 °C -7.3 °C 1020.2 hPa SW 11.3 km/h 18.5 km/h 34 % 0 mm
16:20 7.5 °C -7 °C 1020.2 hPa WSW 10.9 km/h 16.7 km/h 35 % 0 mm
16:25 7.6 °C -7.3 °C 1020.2 hPa WSW 6.6 km/h 13 km/h 34 % 0 mm
16:30 7.6 °C -6.9 °C 1020.2 hPa West 9.5 km/h 20.4 km/h 35 % 0 mm
16:35 7.6 °C -6.9 °C 1020.2 hPa SW 5.5 km/h 6.4 km/h 35 % 0 mm
16:40 7.5 °C -6.3 °C 1020.2 hPa SW 7.1 km/h 11.3 km/h 37 % 0 mm
16:45 7.4 °C -6.7 °C 1020.2 hPa WSW 10.1 km/h 16.7 km/h 36 % 0 mm
16:50 7.4 °C -6.4 °C 1020.2 hPa West 2.9 km/h 5.6 km/h 37 % 0 mm
16:55 7.3 °C -7.2 °C 1020.2 hPa WSW 9.8 km/h 13 km/h 35 % 0 mm
17:00 7.3 °C -7.2 °C 1020.2 hPa West 8.5 km/h 18.5 km/h 35 % 0 mm
17:06 7.2 °C -7.7 °C 1020.2 hPa NW 13.4 km/h 17.7 km/h 34 % 0 mm
17:11 7.1 °C -7.8 °C 1020.2 hPa WSW 11.4 km/h 16.7 km/h 34 % 0 mm
17:16 7 °C -7.8 °C 1020.2 hPa WSW 10.6 km/h 13 km/h 34 % 0 mm
17:21 7 °C -7.4 °C 1020.2 hPa West 9.5 km/h 11.3 km/h 35 % 0 mm
17:26 6.9 °C -7.5 °C 1020.2 hPa West 6.9 km/h 11.1 km/h 35 % 0 mm
17:31 6.9 °C -7.9 °C 1020.2 hPa WNW 10 km/h 16.7 km/h 34 % 0 mm
17:36 6.9 °C -7.5 °C 1020.2 hPa WNW 2.6 km/h 7.4 km/h 35 % 0 mm
17:41 6.9 °C -7.5 °C 1020.5 hPa WNW 3.2 km/h 5.6 km/h 35 % 0 mm
17:46 6.9 °C -7.2 °C 1020.2 hPa WNW 1.9 km/h 9.3 km/h 36 % 0 mm
17:51 6.8 °C -7.6 °C 1020.2 hPa WSW 7.9 km/h 14.5 km/h 35 % 0 mm
17:56 6.8 °C -7.2 °C 1020.2 hPa WSW 4.3 km/h 7.4 km/h 36 % 0 mm
18:01 6.8 °C -7.3 °C 1020.2 hPa WSW 6.3 km/h 9.7 km/h 36 % 0 mm
18:06 6.7 °C -7.7 °C 1020.2 hPa WSW 5.3 km/h 11.3 km/h 35 % 0 mm
18:11 6.7 °C -7.7 °C 1020.2 hPa WSW 6.1 km/h 11.1 km/h 35 % 0 mm
18:16 6.7 °C -7.7 °C 1020.2 hPa WSW 5.5 km/h 7.4 km/h 35 % 0 mm
18:21 6.7 °C -7.4 °C 1020.2 hPa WSW 2.1 km/h 6.4 km/h 36 % 0 mm
18:26 6.6 °C -7.5 °C 1020.2 hPa West 1.3 km/h 3.2 km/h 36 % 0 mm
18:31 6.6 °C -7.1 °C 1020.2 hPa West 1.4 km/h 8 km/h 37 % 0 mm
18:36 6.4 °C -6.9 °C 1020.5 hPa West 1.3 km/h 5.6 km/h 38 % 0 mm
18:41 6.4 °C -6.9 °C 1020.5 hPa West 4.5 km/h 5.6 km/h 38 % 0 mm
18:46 6.3 °C -7 °C 1020.5 hPa West 1.4 km/h 3.7 km/h 38 % 0 mm
18:52 6.2 °C -7.1 °C 1020.5 hPa West 0.6 km/h 3.7 km/h 38 % 0 mm
18:57 6.1 °C -7.2 °C 1020.5 hPa Calm   1.9 km/h 38 % 0 mm
19:02 6 °C -7.3 °C 1020.5 hPa Calm   1.9 km/h 38 % 0 mm
19:07 5.9 °C -7.4 °C 1020.5 hPa Calm     38 % 0 mm
19:12 5.7 °C -6.8 °C 1020.5 hPa Calm   1.9 km/h 40 % 0 mm
19:17 5.6 °C -7 °C 1020.5 hPa West 0.3 km/h 1.9 km/h 40 % 0 mm
19:22 5.3 °C -7.2 °C 1020.5 hPa West 1.4 km/h 3.7 km/h 40 % 0 mm
19:27 5.2 °C -7.1 °C 1020.5 hPa West 0.3 km/h 1.9 km/h 41 % 0 mm
19:32 4.9 °C -7.2 °C 1020.9 hPa Calm     41 % 0 mm
19:42 4.5 °C -6.7 °C 1020.9 hPa Calm     44 % 0 mm
19:47 4.3 °C -6 °C 1020.9 hPa West 0.2 km/h 1.9 km/h 47 % 0 mm
19:52 4.1 °C -6.3 °C 1020.9 hPa SW 2.7 km/h 6.4 km/h 47 % 0 mm
19:57 3.8 °C -6.4 °C 1020.9 hPa SW 1.4 km/h 3.7 km/h 47 % 0 mm
20:02 3.7 °C -6.6 °C 1021.2 hPa SW 0.2 km/h 1.9 km/h 47 % 0 mm
20:07 3.6 °C -6.4 °C 1021.2 hPa Calm     48 % 0 mm
20:12 3.4 °C -6.6 °C 1021.2 hPa SW 0.2 km/h 1.9 km/h 48 % 0 mm
20:17 3.3 °C -6.7 °C 1021.2 hPa Calm     48 % 0 mm
20:22 3.2 °C -6.6 °C 1021.6 hPa WSW 1.9 km/h 4.8 km/h 49 % 0 mm
20:27 3.1 °C -6.4 °C 1021.6 hPa WSW 1.8 km/h 6.4 km/h 50 % 0 mm
20:32 3 °C -5.9 °C 1021.6 hPa SSW 4 km/h 6.4 km/h 52 % 0 mm
20:38 2.9 °C -6 °C 1021.6 hPa SW 6.1 km/h 9.3 km/h 52 % 0 mm
20:43 2.8 °C -6.1 °C 1021.6 hPa SW 3.9 km/h 7.4 km/h 52 % 0 mm
20:48 2.8 °C -6.1 °C 1021.9 hPa SW 0.8 km/h 5.6 km/h 52 % 0 mm
20:52 2.8 °C -6.4 °C 1021.9 hPa SW 0.6 km/h 1.9 km/h 51 % 0 mm
20:58 2.8 °C -5.8 °C 1021.6 hPa WSW 4.8 km/h 7.4 km/h 53 % 0 mm
21:03 2.8 °C -6.4 °C 1021.9 hPa WSW 1.6 km/h 9.7 km/h 51 % 0 mm
21:08 2.8 °C -6.4 °C 1021.9 hPa WSW 4.8 km/h 9.3 km/h 51 % 0 mm
21:13 2.8 °C -6.4 °C 1021.9 hPa SW 1.9 km/h 3.7 km/h 51 % 0 mm
21:18 2.8 °C -6.4 °C 1021.9 hPa SW 2.6 km/h 5.6 km/h 51 % 0 mm
21:23 2.8 °C -6.3 °C 1021.9 hPa WSW 4 km/h 8 km/h 51 % 0 mm
21:28 2.8 °C -6.4 °C 1021.9 hPa SW 4.7 km/h 13 km/h 51 % 0 mm
21:33 2.8 °C -6.4 °C 1021.9 hPa SW 1.8 km/h 5.6 km/h 51 % 0 mm
21:38 2.7 °C -6.4 °C 1021.9 hPa SW 0.2 km/h 1.9 km/h 51 % 0 mm
21:43 2.7 °C -6.4 °C 1021.9 hPa SW 1.6 km/h 11.3 km/h 51 % 0 mm
21:44 2.7 °C -6.2 °C 1021.9 hPa SW 0.8 km/h 1.9 km/h 52 % 0 mm
21:49 2.6 °C -6.5 °C 1021.9 hPa WSW 3.5 km/h 9.7 km/h 51 % 0 mm
21:54 2.6 °C -6.6 °C 1021.9 hPa SW 3.5 km/h 5.6 km/h 51 % 0 mm
21:59 2.5 °C -6.6 °C 1022.2 hPa SSW 0.6 km/h 3.7 km/h 51 % 0 mm
22:04 2.5 °C -6.6 °C 1022.2 hPa SW 3.5 km/h 4.8 km/h 51 % 0 mm
22:09 2.5 °C -6.9 °C 1021.9 hPa WSW 4.8 km/h 6.4 km/h 50 % 0 mm
22:15 2.5 °C -6.9 °C 1022.2 hPa SW 4.7 km/h 9.3 km/h 50 % 0 mm
22:20 2.5 °C -6.6 °C 1022.2 hPa WSW 2.6 km/h 5.6 km/h 51 % 0 mm
22:25 2.5 °C -6.6 °C 1022.2 hPa WSW 0.3 km/h 3.7 km/h 51 % 0 mm
22:30 2.5 °C -6.6 °C 1022.2 hPa WSW 1.9 km/h 3.7 km/h 51 % 0 mm
22:35 2.5 °C -6.6 °C 1022.2 hPa WSW 5 km/h 7.4 km/h 51 % 0 mm
22:40 2.4 °C -6.7 °C 1022.2 hPa SW 1 km/h 5.6 km/h 51 % 0 mm
22:45 2.4 °C -6.7 °C 1022.2 hPa West 0.8 km/h 3.2 km/h 51 % 0 mm
22:50 2.4 °C -6.5 °C 1022.2 hPa West 1.9 km/h 3.7 km/h 52 % 0 mm
22:55 2.3 °C -6.6 °C 1022.2 hPa SW 2.6 km/h 3.7 km/h 52 % 0 mm
23:00 2.3 °C -6.6 °C 1022.2 hPa SW 2.4 km/h 3.7 km/h 52 % 0 mm
23:05 2.2 °C -6.4 °C 1022.2 hPa Calm     53 % 0 mm
23:10 2.2 °C -6.4 °C 1022.2 hPa SW 1.3 km/h 3.7 km/h 53 % 0 mm
23:15 2.1 °C -6.7 °C 1022.2 hPa SW 2.6 km/h 6.4 km/h 52 % 0 mm
23:20 2.1 °C -6.6 °C 1022.2 hPa SW 2.1 km/h 5.6 km/h 53 % 0 mm
23:25 2 °C -6.6 °C 1022.2 hPa SW 2.4 km/h 4.8 km/h 53 % 0 mm
23:30 1.9 °C -6.7 °C 1022.2 hPa WSW 2.1 km/h 5.6 km/h 53 % 0 mm
23:35 1.9 °C -6.4 °C 1022.6 hPa SW 3.7 km/h 5.6 km/h 54 % 0 mm
23:40 1.8 °C -6.3 °C 1022.6 hPa SW 2.9 km/h 7.4 km/h 55 % 0 mm
23:45 1.8 °C -6.3 °C 1022.6 hPa SW 5 km/h 9.3 km/h 55 % 0 mm
23:50 1.7 °C -6.4 °C 1022.6 hPa SW 1.6 km/h 5.6 km/h 55 % 0 mm
23:56 1.7 °C -6.4 °C 1022.6 hPa WSW 4 km/h 8 km/h 55 % 0 mm
Crab Meadow Weather
Compliments of Weather Underground - 3 mb

Script developed by  Jim McMurry - jmcmurry@mwt.net Adapted for the template by  Wim van der Kuil - Leuven-Template.eu

Astronomy: The rings of Saturn are made of ice and rock.